Time,TemperatureF,DewpointF,PressureIn,WindDirection,WindDirectionDegrees,WindSpeedMPH,WindSpeedGustMPH,Humidity,HourlyPrecipIn,Conditions,Clouds,dailyrainin,SoftwareType,DateUTC
2013-08-04 00:03:00,55.6,54.8,29.93,North,353,0.0,0.0,97,0.00,,,0.00,Wunderground v.1.15,2013-08-04 07:03:00,
2013-08-04 00:07:00,55.6,54.8,29.93,North,353,0.0,0.0,97,0.00,,,0.00,Wunderground v.1.15,2013-08-04 07:07:00,
2013-08-04 00:13:00,55.6,54.5,29.93,North,353,0.0,0.0,96,0.00,,,0.00,Wunderground v.1.15,2013-08-04 07:13:00,
2013-08-04 00:17:00,55.4,54.3,29.93,North,353,0.0,0.0,96,0.00,,,0.00,Wunderground v.1.15,2013-08-04 07:17:00,
2013-08-04 00:23:00,55.4,54.3,29.93,North,353,0.0,0.0,96,0.00,,,0.00,Wunderground v.1.15,2013-08-04 07:23:00,
2013-08-04 00:28:00,55.4,54.3,29.93,North,353,0.0,0.0,96,0.00,,,0.00,Wunderground v.1.15,2013-08-04 07:28:00,
2013-08-04 00:33:00,55.4,54.3,29.93,North,353,0.0,1.0,96,0.00,,,0.00,Wunderground v.1.15,2013-08-04 07:33:00,
2013-08-04 00:38:00,55.4,54.3,29.93,North,353,0.0,1.0,96,0.00,,,0.00,Wunderground v.1.15,2013-08-04 07:38:00,
2013-08-04 00:43:00,55.4,54.3,29.93,North,353,0.0,0.0,96,0.00,,,0.00,Wunderground v.1.15,2013-08-04 07:43:00,
2013-08-04 00:48:00,55.3,54.2,29.93,North,353,0.0,0.0,96,0.00,,,0.00,Wunderground v.1.15,2013-08-04 07:48:00,
2013-08-04 00:53:00,55.3,54.2,29.93,North,353,0.0,1.0,96,0.00,,,0.00,Wunderground v.1.15,2013-08-04 07:53:00,
2013-08-04 00:58:00,55.3,54.2,29.93,North,353,2.0,2.0,96,0.00,,,0.00,Wunderground v.1.15,2013-08-04 07:58:00,
2013-08-04 01:03:00,55.3,54.2,29.92,North,352,0.0,0.0,96,0.00,,,0.00,Wunderground v.1.15,2013-08-04 08:03:00,
2013-08-04 01:08:00,55.1,54.3,29.92,North,352,0.0,1.0,97,0.00,,,0.00,Wunderground v.1.15,2013-08-04 08:08:00,
2013-08-04 01:13:00,55.1,54.3,29.92,North,352,0.0,0.0,97,0.00,,,0.00,Wunderground v.1.15,2013-08-04 08:13:00,
2013-08-04 01:18:00,55.3,54.5,29.93,North,352,0.0,0.0,97,0.00,,,0.00,Wunderground v.1.15,2013-08-04 08:18:00,
2013-08-04 01:23:00,55.3,54.5,29.93,North,352,0.0,0.0,97,0.00,,,0.00,Wunderground v.1.15,2013-08-04 08:23:00,
2013-08-04 01:28:00,55.3,54.5,29.93,North,352,0.0,0.0,97,0.00,,,0.00,Wunderground v.1.15,2013-08-04 08:28:00,
2013-08-04 01:33:00,55.3,54.5,29.92,North,352,0.0,0.0,97,0.00,,,0.00,Wunderground v.1.15,2013-08-04 08:33:00,
2013-08-04 01:38:00,55.1,54.3,29.92,North,352,1.0,1.0,97,0.00,,,0.00,Wunderground v.1.15,2013-08-04 08:38:00,
2013-08-04 01:43:00,55.1,54.3,29.92,North,352,0.0,1.0,97,0.00,,,0.00,Wunderground v.1.15,2013-08-04 08:43:00,
2013-08-04 01:48:00,55.0,54.2,29.92,North,352,0.0,1.0,97,0.00,,,0.00,Wunderground v.1.15,2013-08-04 08:48:00,
2013-08-04 01:53:00,55.0,54.2,29.92,North,352,0.0,0.0,97,0.00,,,0.00,Wunderground v.1.15,2013-08-04 08:53:00,
2013-08-04 01:58:00,55.0,54.2,29.92,North,352,0.0,0.0,97,0.00,,,0.00,Wunderground v.1.15,2013-08-04 08:58:00,
2013-08-04 02:03:00,55.0,54.2,29.92,North,352,0.0,0.0,97,0.00,,,0.00,Wunderground v.1.15,2013-08-04 09:03:00,
2013-08-04 02:08:00,55.0,54.2,29.92,North,352,0.0,1.0,97,0.00,,,0.00,Wunderground v.1.15,2013-08-04 09:08:00,
2013-08-04 02:13:00,55.0,54.2,29.92,North,352,0.0,0.0,97,0.00,,,0.00,Wunderground v.1.15,2013-08-04 09:13:00,
2013-08-04 02:18:00,54.8,54.0,29.92,North,352,0.0,0.0,97,0.00,,,0.00,Wunderground v.1.15,2013-08-04 09:18:00,
2013-08-04 02:23:00,55.0,54.2,29.92,North,352,1.0,1.0,97,0.00,,,0.00,Wunderground v.1.15,2013-08-04 09:23:00,
2013-08-04 02:28:00,55.0,54.4,29.92,North,352,0.0,1.0,98,0.00,,,0.00,Wunderground v.1.15,2013-08-04 09:28:00,
2013-08-04 02:33:00,55.0,54.2,29.92,North,352,0.0,0.0,97,0.00,,,0.00,Wunderground v.1.15,2013-08-04 09:33:00,
2013-08-04 02:38:00,55.0,54.2,29.92,North,352,0.0,0.0,97,0.00,,,0.00,Wunderground v.1.15,2013-08-04 09:38:00,
2013-08-04 02:43:00,55.0,54.2,29.92,North,352,0.0,0.0,97,0.00,,,0.00,Wunderground v.1.15,2013-08-04 09:43:00,
2013-08-04 02:48:00,55.0,54.2,29.92,North,352,0.0,0.0,97,0.00,,,0.00,Wunderground v.1.15,2013-08-04 09:48:00,
2013-08-04 02:53:00,55.0,54.2,29.92,North,352,0.0,0.0,97,0.00,,,0.00,Wunderground v.1.15,2013-08-04 09:53:00,
2013-08-04 02:58:00,54.8,54.0,29.92,North,352,0.0,1.0,97,0.00,,,0.00,Wunderground v.1.15,2013-08-04 09:58:00,
2013-08-04 03:03:00,54.8,54.0,29.92,North,352,0.0,0.0,97,0.00,,,0.00,Wunderground v.1.15,2013-08-04 10:03:00,
2013-08-04 03:08:00,54.7,54.1,29.92,North,352,0.0,0.0,98,0.00,,,0.00,Wunderground v.1.15,2013-08-04 10:08:00,
2013-08-04 03:13:00,54.8,54.2,29.92,North,352,0.0,0.0,98,0.00,,,0.00,Wunderground v.1.15,2013-08-04 10:13:00,
2013-08-04 03:18:00,54.8,54.2,29.92,North,352,0.0,0.0,98,0.00,,,0.00,Wunderground v.1.15,2013-08-04 10:18:00,
2013-08-04 03:23:00,54.8,54.2,29.92,North,352,0.0,0.0,98,0.00,,,0.00,Wunderground v.1.15,2013-08-04 10:23:00,
2013-08-04 03:28:00,54.7,54.1,29.92,North,352,0.0,2.0,98,0.00,,,0.00,Wunderground v.1.15,2013-08-04 10:28:00,
2013-08-04 03:33:00,54.7,54.1,29.92,North,352,0.0,0.0,98,0.00,,,0.00,Wunderground v.1.15,2013-08-04 10:33:00,
2013-08-04 03:38:00,54.7,54.1,29.92,North,352,0.0,0.0,98,0.00,,,0.00,Wunderground v.1.15,2013-08-04 10:38:00,
2013-08-04 03:43:00,54.7,54.1,29.92,North,352,0.0,0.0,98,0.00,,,0.00,Wunderground v.1.15,2013-08-04 10:43:00,
2013-08-04 03:48:00,54.7,54.1,29.92,North,352,0.0,0.0,98,0.00,,,0.00,Wunderground v.1.15,2013-08-04 10:48:00,
2013-08-04 03:53:00,54.7,54.1,29.92,North,352,0.0,0.0,98,0.00,,,0.00,Wunderground v.1.15,2013-08-04 10:53:00,
2013-08-04 03:58:00,54.7,54.1,29.92,North,352,0.0,0.0,98,0.00,,,0.00,Wunderground v.1.15,2013-08-04 10:58:00,
2013-08-04 04:03:00,54.7,54.1,29.92,North,352,0.0,0.0,98,0.00,,,0.00,Wunderground v.1.15,2013-08-04 11:03:00,
2013-08-04 04:08:00,54.7,54.1,29.92,North,352,0.0,0.0,98,0.00,,,0.00,Wunderground v.1.15,2013-08-04 11:08:00,
2013-08-04 04:13:00,54.7,54.1,29.92,North,352,0.0,0.0,98,0.00,,,0.00,Wunderground v.1.15,2013-08-04 11:13:00,
2013-08-04 04:18:00,54.7,54.1,29.91,North,352,0.0,0.0,98,0.00,,,0.00,Wunderground v.1.15,2013-08-04 11:18:00,
2013-08-04 04:23:00,54.5,53.9,29.91,North,352,0.0,1.0,98,0.00,,,0.00,Wunderground v.1.15,2013-08-04 11:23:00,
2013-08-04 04:28:00,54.5,53.9,29.91,North,352,0.0,1.0,98,0.00,,,0.00,Wunderground v.1.15,2013-08-04 11:28:00,
2013-08-04 04:33:00,54.5,53.9,29.91,North,352,0.0,0.0,98,0.00,,,0.00,Wunderground v.1.15,2013-08-04 11:33:00,
2013-08-04 04:38:00,54.5,54.2,29.91,North,352,0.0,0.0,99,0.00,,,0.00,Wunderground v.1.15,2013-08-04 11:38:00,
2013-08-04 04:43:00,54.4,54.1,29.91,North,352,0.0,1.0,99,0.00,,,0.00,Wunderground v.1.15,2013-08-04 11:43:00,
2013-08-04 04:48:00,54.4,54.1,29.91,North,352,0.0,1.0,99,0.00,,,0.00,Wunderground v.1.15,2013-08-04 11:48:00,
2013-08-04 04:53:00,54.4,54.1,29.91,North,352,0.0,0.0,99,0.00,,,0.00,Wunderground v.1.15,2013-08-04 11:53:00,
2013-08-04 04:58:00,54.4,54.1,29.91,North,352,0.0,0.0,99,0.00,,,0.00,Wunderground v.1.15,2013-08-04 11:58:00,
2013-08-04 05:03:00,54.2,53.9,29.92,North,352,0.0,0.0,99,0.00,,,0.00,Wunderground v.1.15,2013-08-04 12:03:00,
2013-08-04 05:08:00,54.2,54.2,29.92,North,352,0.0,1.0,100,0.00,,,0.00,Wunderground v.1.15,2013-08-04 12:08:00,
2013-08-04 05:13:00,54.2,54.2,29.92,North,352,0.0,0.0,100,0.00,,,0.00,Wunderground v.1.15,2013-08-04 12:13:00,
2013-08-04 05:18:00,54.2,54.2,29.92,North,352,0.0,0.0,100,0.00,,,0.00,Wunderground v.1.15,2013-08-04 12:18:00,
2013-08-04 05:23:00,54.2,54.2,29.92,North,352,0.0,0.0,100,0.00,,,0.00,Wunderground v.1.15,2013-08-04 12:23:00,
2013-08-04 05:28:00,54.2,54.2,29.92,North,352,0.0,0.0,100,0.00,,,0.00,Wunderground v.1.15,2013-08-04 12:28:00,
2013-08-04 05:33:00,54.1,54.1,29.92,North,352,0.0,1.0,100,0.00,,,0.00,Wunderground v.1.15,2013-08-04 12:33:00,
2013-08-04 05:38:00,53.9,53.9,29.92,North,352,0.0,1.0,100,0.00,,,0.00,Wunderground v.1.15,2013-08-04 12:38:00,
2013-08-04 05:43:00,53.9,53.9,29.92,North,352,0.0,0.0,100,0.00,,,0.00,Wunderground v.1.15,2013-08-04 12:43:00,
2013-08-04 05:48:00,53.9,53.9,29.92,North,352,0.0,0.0,100,0.00,,,0.00,Wunderground v.1.15,2013-08-04 12:48:00,
2013-08-04 05:53:00,53.9,53.9,29.92,North,352,0.0,0.0,100,0.00,,,0.00,Wunderground v.1.15,2013-08-04 12:53:00,
2013-08-04 05:58:00,53.8,53.8,29.92,East,96,0.0,2.0,100,0.00,,,0.00,Wunderground v.1.15,2013-08-04 12:58:00,
2013-08-04 06:03:00,53.8,53.8,29.92,East,96,0.0,0.0,100,0.00,,,0.00,Wunderground v.1.15,2013-08-04 13:03:00,
2013-08-04 06:08:00,53.8,53.8,29.92,East,96,0.0,0.0,100,0.00,,,0.00,Wunderground v.1.15,2013-08-04 13:08:00,
2013-08-04 06:13:00,53.8,53.8,29.92,East,96,0.0,1.0,100,0.00,,,0.00,Wunderground v.1.15,2013-08-04 13:13:00,
2013-08-04 06:18:00,53.8,53.8,29.93,East,96,0.0,1.0,100,0.00,,,0.00,Wunderground v.1.15,2013-08-04 13:18:00,
2013-08-04 06:23:00,53.8,53.8,29.93,East,96,0.0,0.0,100,0.00,,,0.00,Wunderground v.1.15,2013-08-04 13:23:00,
2013-08-04 06:28:00,53.8,53.8,29.93,East,96,0.0,0.0,100,0.00,,,0.00,Wunderground v.1.15,2013-08-04 13:28:00,
2013-08-04 06:33:00,53.8,53.8,29.93,East,96,0.0,1.0,100,0.00,,,0.00,Wunderground v.1.15,2013-08-04 13:33:00,
2013-08-04 06:38:00,53.6,53.6,29.93,East,96,0.0,1.0,100,0.00,,,0.00,Wunderground v.1.15,2013-08-04 13:38:00,
2013-08-04 06:43:00,53.6,53.6,29.93,East,96,0.0,0.0,100,0.00,,,0.00,Wunderground v.1.15,2013-08-04 13:43:00,
2013-08-04 06:48:00,53.8,53.8,29.93,East,96,0.0,0.0,100,0.00,,,0.00,Wunderground v.1.15,2013-08-04 13:48:00,
2013-08-04 06:53:00,53.8,53.8,29.93,East,96,0.0,0.0,100,0.00,,,0.00,Wunderground v.1.15,2013-08-04 13:53:00,
2013-08-04 06:58:00,53.8,53.8,29.93,East,96,1.0,1.0,100,0.00,,,0.00,Wunderground v.1.15,2013-08-04 13:58:00,
2013-08-04 07:04:00,53.8,53.8,29.93,East,96,0.0,0.0,100,0.00,,,0.00,Wunderground v.1.15,2013-08-04 14:04:00,
2013-08-04 07:09:00,53.8,53.8,29.93,East,96,0.0,0.0,100,0.00,,,0.00,Wunderground v.1.15,2013-08-04 14:09:00,
2013-08-04 07:13:00,53.8,53.8,29.93,East,96,0.0,0.0,100,0.00,,,0.00,Wunderground v.1.15,2013-08-04 14:13:00,
2013-08-04 07:18:00,53.9,53.9,29.93,East,96,0.0,0.0,100,0.00,,,0.00,Wunderground v.1.15,2013-08-04 14:18:00,
2013-08-04 07:24:00,53.9,53.9,29.93,East,96,0.0,0.0,100,0.00,,,0.00,Wunderground v.1.15,2013-08-04 14:24:00,
2013-08-04 07:29:00,53.9,53.9,29.93,East,96,0.0,1.0,100,0.00,,,0.00,Wunderground v.1.15,2013-08-04 14:29:00,
2013-08-04 07:34:00,53.9,53.9,29.94,East,96,0.0,0.0,100,0.00,,,0.00,Wunderground v.1.15,2013-08-04 14:34:00,
2013-08-04 07:39:00,53.9,53.9,29.94,East,96,0.0,0.0,100,0.00,,,0.00,Wunderground v.1.15,2013-08-04 14:39:00,
2013-08-04 07:44:00,53.9,53.9,29.94,East,96,0.0,1.0,100,0.00,,,0.00,Wunderground v.1.15,2013-08-04 14:44:00,
2013-08-04 07:49:00,53.9,53.9,29.94,East,96,0.0,1.0,100,0.00,,,0.00,Wunderground v.1.15,2013-08-04 14:49:00,
2013-08-04 07:53:00,53.9,53.9,29.94,East,96,0.0,0.0,100,0.00,,,0.00,Wunderground v.1.15,2013-08-04 14:53:00,
2013-08-04 07:59:00,53.9,53.9,29.94,East,96,0.0,0.0,100,0.00,,,0.00,Wunderground v.1.15,2013-08-04 14:59:00,
2013-08-04 08:03:00,54.1,54.1,29.94,East,96,0.0,0.0,100,0.00,,,0.00,Wunderground v.1.15,2013-08-04 15:03:00,
2013-08-04 08:09:00,54.1,54.1,29.94,East,96,0.0,0.0,100,0.00,,,0.00,Wunderground v.1.15,2013-08-04 15:09:00,
2013-08-04 08:13:00,54.1,54.1,29.94,East,96,0.0,0.0,100,0.00,,,0.00,Wunderground v.1.15,2013-08-04 15:13:00,
2013-08-04 08:19:00,54.1,54.1,29.95,East,96,1.0,1.0,100,0.00,,,0.00,Wunderground v.1.15,2013-08-04 15:19:00,
2013-08-04 08:24:00,53.9,53.9,29.95,East,96,0.0,1.0,100,0.00,,,0.00,Wunderground v.1.15,2013-08-04 15:24:00,
2013-08-04 08:28:00,53.8,53.8,29.95,East,96,0.0,1.0,100,0.00,,,0.00,Wunderground v.1.15,2013-08-04 15:28:00,
2013-08-04 08:34:00,53.9,53.9,29.95,East,96,0.0,0.0,100,0.00,,,0.00,Wunderground v.1.15,2013-08-04 15:34:00,
2013-08-04 08:39:00,53.9,53.9,29.95,NNW,335,0.0,2.0,100,0.00,,,0.00,Wunderground v.1.15,2013-08-04 15:39:00,
2013-08-04 08:44:00,53.9,53.9,29.95,NNW,335,0.0,0.0,100,0.00,,,0.00,Wunderground v.1.15,2013-08-04 15:44:00,
2013-08-04 08:49:00,54.1,54.1,29.95,NNW,335,0.0,1.0,100,0.00,,,0.00,Wunderground v.1.15,2013-08-04 15:49:00,
2013-08-04 08:54:00,53.9,53.9,29.95,NW,325,0.0,3.0,100,0.00,,,0.00,Wunderground v.1.15,2013-08-04 15:54:00,
2013-08-04 08:59:00,54.1,54.1,29.95,NW,325,0.0,3.0,100,0.00,,,0.00,Wunderground v.1.15,2013-08-04 15:59:00,
2013-08-04 09:04:00,54.2,54.2,29.95,NW,325,0.0,2.0,100,0.00,,,0.00,Wunderground v.1.15,2013-08-04 16:04:00,
2013-08-04 09:09:00,54.2,54.2,29.95,NW,325,0.0,2.0,100,0.00,,,0.00,Wunderground v.1.15,2013-08-04 16:09:00,
2013-08-04 09:14:00,54.2,54.2,29.95,NNW,333,0.0,3.0,100,0.00,,,0.00,Wunderground v.1.15,2013-08-04 16:14:00,
2013-08-04 09:18:00,54.4,54.4,29.95,NW,319,0.0,3.0,100,0.00,,,0.00,Wunderground v.1.15,2013-08-04 16:18:00,
2013-08-04 09:24:00,54.4,54.4,29.95,NW,319,1.0,1.0,100,0.00,,,0.00,Wunderground v.1.15,2013-08-04 16:24:00,
2013-08-04 09:29:00,54.4,54.4,29.95,NNE,15,0.0,3.0,100,0.00,,,0.00,Wunderground v.1.15,2013-08-04 16:29:00,
2013-08-04 09:34:00,54.5,54.5,29.95,East,91,1.0,2.0,100,0.00,,,0.00,Wunderground v.1.15,2013-08-04 16:34:00,
2013-08-04 09:39:00,54.5,54.2,29.95,NNW,331,0.0,3.0,99,0.00,,,0.00,Wunderground v.1.15,2013-08-04 16:39:00,
2013-08-04 09:44:00,54.7,54.7,29.95,NNW,331,0.0,0.0,100,0.00,,,0.00,Wunderground v.1.15,2013-08-04 16:44:00,
2013-08-04 09:49:00,54.8,54.5,29.96,NNW,331,0.0,2.0,99,0.00,,,0.00,Wunderground v.1.15,2013-08-04 16:49:00,
2013-08-04 09:54:00,54.8,54.2,29.96,WSW,257,0.0,2.0,98,0.00,,,0.00,Wunderground v.1.15,2013-08-04 16:54:00,
2013-08-04 09:59:00,55.0,54.4,29.96,West,259,0.0,2.0,98,0.00,,,0.00,Wunderground v.1.15,2013-08-04 16:59:00,
2013-08-04 10:04:00,55.1,54.5,29.96,North,359,1.0,2.0,98,0.00,,,0.00,Wunderground v.1.15,2013-08-04 17:04:00,
2013-08-04 10:08:00,55.1,54.3,29.96,NW,320,1.0,7.0,97,0.00,,,0.00,Wunderground v.1.15,2013-08-04 17:08:00,
2013-08-04 10:13:00,55.3,54.5,29.96,NW,307,0.0,2.0,97,0.00,,,0.00,Wunderground v.1.15,2013-08-04 17:13:00,
2013-08-04 10:19:00,55.6,54.5,29.96,ESE,118,0.0,3.0,96,0.00,,,0.00,Wunderground v.1.15,2013-08-04 17:19:00,
2013-08-04 10:24:00,55.9,54.8,29.96,SE,134,1.0,3.0,96,0.00,,,0.00,Wunderground v.1.15,2013-08-04 17:24:00,
2013-08-04 10:28:00,56.0,54.6,29.96,SE,133,0.0,3.0,95,0.00,,,0.00,Wunderground v.1.15,2013-08-04 17:28:00,
2013-08-04 10:33:00,56.2,54.5,29.96,ESE,121,0.0,3.0,94,0.00,,,0.00,Wunderground v.1.15,2013-08-04 17:33:00,
2013-08-04 10:39:00,56.5,54.5,29.96,SE,141,2.0,3.0,93,0.00,,,0.00,Wunderground v.1.15,2013-08-04 17:39:00,
2013-08-04 10:44:00,56.6,54.3,29.96,SSW,197,1.0,4.0,92,0.00,,,0.00,Wunderground v.1.15,2013-08-04 17:44:00,
2013-08-04 10:49:00,56.5,54.2,29.96,WSW,248,2.0,4.0,92,0.00,,,0.00,Wunderground v.1.15,2013-08-04 17:49:00,
2013-08-04 10:54:00,56.6,54.3,29.96,WNW,301,0.0,2.0,92,0.00,,,0.00,Wunderground v.1.15,2013-08-04 17:54:00,
2013-08-04 10:59:00,56.7,54.1,29.96,SSE,149,2.0,4.0,91,0.00,,,0.00,Wunderground v.1.15,2013-08-04 17:59:00,
2013-08-04 11:04:00,57.0,54.4,29.97,South,175,0.0,1.0,91,0.00,,,0.00,Wunderground v.1.15,2013-08-04 18:04:00,
2013-08-04 11:09:00,57.2,54.6,29.97,NNW,345,2.0,6.0,91,0.00,,,0.00,Wunderground v.1.15,2013-08-04 18:09:00,
2013-08-04 11:14:00,57.3,54.1,29.97,East,91,0.0,5.0,89,0.00,,,0.00,Wunderground v.1.15,2013-08-04 18:14:00,
2013-08-04 11:19:00,57.6,54.4,29.96,North,1,0.0,5.0,89,0.00,,,0.00,Wunderground v.1.15,2013-08-04 18:19:00,
2013-08-04 11:24:00,58.1,54.6,29.96,West,261,0.0,3.0,88,0.00,,,0.00,Wunderground v.1.15,2013-08-04 18:24:00,
2013-08-04 11:29:00,58.1,54.2,29.96,North,4,3.0,5.0,87,0.00,,,0.00,Wunderground v.1.15,2013-08-04 18:29:00,
2013-08-04 11:34:00,57.8,53.6,29.97,North,1,0.0,4.0,86,0.00,,,0.00,Wunderground v.1.15,2013-08-04 18:34:00,
2013-08-04 11:38:00,58.3,54.1,29.97,SSE,148,0.0,6.0,86,0.00,,,0.00,Wunderground v.1.15,2013-08-04 18:38:00,
2013-08-04 11:44:00,58.9,54.7,29.97,WNW,287,5.0,5.0,86,0.00,,,0.00,Wunderground v.1.15,2013-08-04 18:44:00,
2013-08-04 11:49:00,59.2,54.4,29.96,WNW,297,7.0,7.0,84,0.00,,,0.00,Wunderground v.1.15,2013-08-04 18:49:00,
2013-08-04 11:54:00,59.9,55.1,29.96,North,350,3.0,5.0,84,0.00,,,0.00,Wunderground v.1.15,2013-08-04 18:54:00,
2013-08-04 11:59:00,59.6,54.1,29.96,North,1,3.0,7.0,82,0.00,,,0.00,Wunderground v.1.15,2013-08-04 18:59:00,
2013-08-04 12:04:00,59.8,54.3,29.96,West,274,2.0,6.0,82,0.00,,,0.00,Wunderground v.1.15,2013-08-04 19:04:00,
2013-08-04 12:08:00,60.1,54.6,29.96,North,359,0.0,6.0,82,0.00,,,0.00,Wunderground v.1.15,2013-08-04 19:08:00,
2013-08-04 12:13:00,60.2,54.3,29.96,WSW,258,1.0,9.0,81,0.00,,,0.00,Wunderground v.1.15,2013-08-04 19:13:00,
2013-08-04 12:18:00,60.5,54.6,29.96,NW,304,2.0,9.0,81,0.00,,,0.00,Wunderground v.1.15,2013-08-04 19:18:00,
2013-08-04 12:24:00,61.2,55.0,29.96,ESE,107,1.0,3.0,80,0.00,,,0.00,Wunderground v.1.15,2013-08-04 19:24:00,
2013-08-04 12:29:00,62.1,55.2,29.96,NW,323,0.0,4.0,78,0.00,,,0.00,Wunderground v.1.15,2013-08-04 19:29:00,
2013-08-04 12:34:00,62.1,54.8,29.96,SE,145,2.0,6.0,77,0.00,,,0.00,Wunderground v.1.15,2013-08-04 19:34:00,
2013-08-04 12:39:00,61.8,54.9,29.96,ESE,108,1.0,6.0,78,0.00,,,0.00,Wunderground v.1.15,2013-08-04 19:39:00,
2013-08-04 12:44:00,61.8,54.5,29.96,SSW,202,1.0,7.0,77,0.00,,,0.00,Wunderground v.1.15,2013-08-04 19:44:00,
2013-08-04 12:49:00,61.6,54.7,29.96,NNW,333,1.0,7.0,78,0.00,,,0.00,Wunderground v.1.15,2013-08-04 19:49:00,
2013-08-04 12:54:00,62.3,55.0,29.96,SE,145,2.0,4.0,77,0.00,,,0.00,Wunderground v.1.15,2013-08-04 19:54:00,
2013-08-04 12:59:00,62.3,54.6,29.96,North,359,1.0,10.0,76,0.00,,,0.00,Wunderground v.1.15,2013-08-04 19:59:00,
2013-08-04 13:04:00,62.0,55.1,29.96,NE,47,0.0,5.0,78,0.00,,,0.00,Wunderground v.1.15,2013-08-04 20:04:00,
2013-08-04 13:09:00,62.3,55.4,29.96,South,188,0.0,5.0,78,0.00,,,0.00,Wunderground v.1.15,2013-08-04 20:09:00,
2013-08-04 13:14:00,62.3,55.4,29.96,West,271,4.0,7.0,78,0.00,,,0.00,Wunderground v.1.15,2013-08-04 20:14:00,
2013-08-04 13:19:00,62.3,55.4,29.95,NNW,348,10.0,10.0,78,0.00,,,0.00,Wunderground v.1.15,2013-08-04 20:19:00,
2013-08-04 13:24:00,62.3,55.4,29.95,SE,124,0.0,4.0,78,0.00,,,0.00,Wunderground v.1.15,2013-08-04 20:24:00,
2013-08-04 13:29:00,62.4,55.1,29.95,North,1,3.0,5.0,77,0.00,,,0.00,Wunderground v.1.15,2013-08-04 20:29:00,
2013-08-04 13:34:00,62.6,54.9,29.95,North,10,0.0,5.0,76,0.00,,,0.00,Wunderground v.1.15,2013-08-04 20:34:00,
2013-08-04 13:39:00,62.4,55.1,29.95,NW,325,0.0,5.0,77,0.00,,,0.00,Wunderground v.1.15,2013-08-04 20:39:00,
2013-08-04 13:44:00,63.1,55.4,29.95,North,359,4.0,9.0,76,0.00,,,0.00,Wunderground v.1.15,2013-08-04 20:44:00,
2013-08-04 13:48:00,63.4,55.7,29.95,NE,46,2.0,10.0,76,0.00,,,0.00,Wunderground v.1.15,2013-08-04 20:48:00,
2013-08-04 13:54:00,63.7,55.6,29.95,NNE,27,2.0,4.0,75,0.00,,,0.00,Wunderground v.1.15,2013-08-04 20:54:00,
2013-08-04 13:59:00,63.2,55.1,29.95,NNW,342,2.0,6.0,75,0.00,,,0.00,Wunderground v.1.15,2013-08-04 20:59:00,
2013-08-04 14:04:00,62.6,55.3,29.95,West,262,2.0,9.0,77,0.00,,,0.00,Wunderground v.1.15,2013-08-04 21:04:00,
2013-08-04 14:09:00,62.4,55.1,29.95,NNE,17,0.0,10.0,77,0.00,,,0.00,Wunderground v.1.15,2013-08-04 21:09:00,
2013-08-04 14:14:00,62.9,55.6,29.95,North,356,4.0,6.0,77,0.00,,,0.00,Wunderground v.1.15,2013-08-04 21:14:00,
2013-08-04 14:19:00,62.7,55.4,29.95,NNE,21,1.0,6.0,77,0.00,,,0.00,Wunderground v.1.15,2013-08-04 21:19:00,
2013-08-04 14:24:00,62.4,55.1,29.95,North,353,2.0,6.0,77,0.00,,,0.00,Wunderground v.1.15,2013-08-04 21:24:00,
2013-08-04 14:29:00,62.6,55.3,29.95,SSE,154,5.0,6.0,77,0.00,,,0.00,Wunderground v.1.15,2013-08-04 21:29:00,
2013-08-04 14:34:00,62.1,55.2,29.95,SE,127,0.0,6.0,78,0.00,,,0.00,Wunderground v.1.15,2013-08-04 21:34:00,
2013-08-04 14:39:00,62.0,55.4,29.95,North,0,5.0,6.0,79,0.00,,,0.00,Wunderground v.1.15,2013-08-04 21:39:00,
2013-08-04 14:44:00,62.4,55.4,29.95,SSE,150,0.0,7.0,78,0.00,,,0.00,Wunderground v.1.15,2013-08-04 21:44:00,
2013-08-04 14:49:00,62.9,55.9,29.94,North,6,5.0,7.0,78,0.00,,,0.00,Wunderground v.1.15,2013-08-04 21:49:00,
2013-08-04 14:54:00,62.7,55.7,29.94,NNE,18,0.0,4.0,78,0.00,,,0.00,Wunderground v.1.15,2013-08-04 21:54:00,
2013-08-04 14:59:00,62.1,54.8,29.94,NE,56,3.0,6.0,77,0.00,,,0.00,Wunderground v.1.15,2013-08-04 21:59:00,
2013-08-04 15:04:00,60.9,54.3,29.94,North,0,0.0,9.0,79,0.00,,,0.00,Wunderground v.1.15,2013-08-04 22:04:00,
2013-08-04 15:09:00,60.9,54.7,29.94,WSW,250,0.0,9.0,80,0.00,,,0.00,Wunderground v.1.15,2013-08-04 22:09:00,
2013-08-04 15:14:00,60.5,54.6,29.94,NW,321,2.0,7.0,81,0.00,,,0.00,Wunderground v.1.15,2013-08-04 22:14:00,
2013-08-04 15:19:00,60.1,54.6,29.93,NNE,25,3.0,11.0,82,0.00,,,0.00,Wunderground v.1.15,2013-08-04 22:19:00,
2013-08-04 15:24:00,60.5,55.3,29.93,North,0,4.0,7.0,83,0.00,,,0.00,Wunderground v.1.15,2013-08-04 22:24:00,
2013-08-04 15:29:00,61.3,55.4,29.93,WSW,257,0.0,7.0,81,0.00,,,0.00,Wunderground v.1.15,2013-08-04 22:29:00,
2013-08-04 15:34:00,61.6,55.0,29.93,NNW,335,4.0,10.0,79,0.00,,,0.00,Wunderground v.1.15,2013-08-04 22:34:00,
2013-08-04 15:39:00,61.3,55.1,29.93,NNW,344,9.0,10.0,80,0.00,,,0.00,Wunderground v.1.15,2013-08-04 22:39:00,
2013-08-04 15:44:00,61.3,55.1,29.93,North,1,4.0,9.0,80,0.00,,,0.00,Wunderground v.1.15,2013-08-04 22:44:00,
2013-08-04 15:49:00,61.0,54.8,29.93,SSE,162,3.0,9.0,80,0.00,,,0.00,Wunderground v.1.15,2013-08-04 22:49:00,
2013-08-04 15:54:00,61.3,55.1,29.93,ENE,72,4.0,4.0,80,0.00,,,0.00,Wunderground v.1.15,2013-08-04 22:54:00,
2013-08-04 15:59:00,61.3,54.7,29.93,NW,322,4.0,7.0,79,0.00,,,0.00,Wunderground v.1.15,2013-08-04 22:59:00,
2013-08-04 16:04:00,61.8,55.2,29.93,NW,313,3.0,7.0,79,0.00,,,0.00,Wunderground v.1.15,2013-08-04 23:04:00,
2013-08-04 16:09:00,62.4,55.4,29.93,NW,324,1.0,7.0,78,0.00,,,0.00,Wunderground v.1.15,2013-08-04 23:09:00,
2013-08-04 16:14:00,62.4,55.4,29.93,NNW,340,0.0,6.0,78,0.00,,,0.00,Wunderground v.1.15,2013-08-04 23:14:00,
2013-08-04 16:19:00,62.6,55.3,29.93,North,2,1.0,6.0,77,0.00,,,0.00,Wunderground v.1.15,2013-08-04 23:19:00,
2013-08-04 16:24:00,62.6,55.3,29.93,North,1,2.0,4.0,77,0.00,,,0.00,Wunderground v.1.15,2013-08-04 23:24:00,
2013-08-04 16:29:00,61.8,54.9,29.93,ENE,75,1.0,11.0,78,0.00,,,0.00,Wunderground v.1.15,2013-08-04 23:29:00,
2013-08-04 16:34:00,61.5,54.9,29.93,NNW,344,0.0,5.0,79,0.00,,,0.00,Wunderground v.1.15,2013-08-04 23:34:00,
2013-08-04 16:39:00,61.6,55.0,29.93,NW,323,3.0,7.0,79,0.00,,,0.00,Wunderground v.1.15,2013-08-04 23:39:00,
2013-08-04 16:44:00,61.8,55.2,29.93,West,277,1.0,9.0,79,0.00,,,0.00,Wunderground v.1.15,2013-08-04 23:44:00,
2013-08-04 16:49:00,61.6,55.0,29.93,SSE,158,0.0,9.0,79,0.00,,,0.00,Wunderground v.1.15,2013-08-04 23:49:00,
2013-08-04 16:54:00,61.6,55.4,29.93,NNE,24,3.0,5.0,80,0.00,,,0.00,Wunderground v.1.15,2013-08-04 23:54:00,
2013-08-04 16:59:00,61.6,55.7,29.93,South,181,2.0,5.0,81,0.00,,,0.00,Wunderground v.1.15,2013-08-04 23:59:00,
2013-08-04 17:04:00,61.2,55.3,29.92,SSW,205,0.0,8.0,81,0.00,,,0.00,Wunderground v.1.15,2013-08-05 00:04:00,
2013-08-04 17:09:00,61.5,55.6,29.92,NE,55,1.0,8.0,81,0.00,,,0.00,Wunderground v.1.15,2013-08-05 00:09:00,
2013-08-04 17:14:00,61.5,54.9,29.92,NNW,331,0.0,3.0,79,0.00,,,0.00,Wunderground v.1.15,2013-08-05 00:14:00,
2013-08-04 17:19:00,61.0,55.1,29.92,SSE,160,3.0,9.0,81,0.00,,,0.00,Wunderground v.1.15,2013-08-05 00:19:00,
2013-08-04 17:24:00,60.4,54.9,29.92,SE,131,2.0,5.0,82,0.00,,,0.00,Wunderground v.1.15,2013-08-05 00:24:00,
2013-08-04 17:29:00,60.1,54.9,29.92,North,1,3.0,5.0,83,0.00,,,0.00,Wunderground v.1.15,2013-08-05 00:29:00,
2013-08-04 17:34:00,59.8,54.6,29.92,SE,124,0.0,3.0,83,0.00,,,0.00,Wunderground v.1.15,2013-08-05 00:34:00,
2013-08-04 17:39:00,59.6,54.8,29.92,East,99,0.0,3.0,84,0.00,,,0.00,Wunderground v.1.15,2013-08-05 00:39:00,
2013-08-04 17:44:00,59.5,54.7,29.92,SE,141,3.0,3.0,84,0.00,,,0.00,Wunderground v.1.15,2013-08-05 00:44:00,
2013-08-04 17:49:00,59.3,54.8,29.91,North,1,4.0,4.0,85,0.00,,,0.00,Wunderground v.1.15,2013-08-05 00:49:00,
2013-08-04 17:54:00,59.3,54.5,29.91,West,272,0.0,5.0,84,0.00,,,0.00,Wunderground v.1.15,2013-08-05 00:54:00,
2013-08-04 17:59:00,59.0,54.5,29.91,SSE,153,0.0,5.0,85,0.00,,,0.00,Wunderground v.1.15,2013-08-05 00:59:00,
2013-08-04 18:04:00,58.9,54.7,29.91,SSE,160,0.0,4.0,86,0.00,,,0.00,Wunderground v.1.15,2013-08-05 01:04:00,
2013-08-04 18:09:00,58.6,54.4,29.91,North,1,1.0,4.0,86,0.00,,,0.00,Wunderground v.1.15,2013-08-05 01:09:00,
2013-08-04 18:14:00,58.3,54.1,29.91,North,0,0.0,3.0,86,0.00,,,0.00,Wunderground v.1.15,2013-08-05 01:14:00,
2013-08-04 18:19:00,58.1,54.2,29.91,North,8,1.0,5.0,87,0.00,,,0.00,Wunderground v.1.15,2013-08-05 01:19:00,
2013-08-04 18:24:00,58.0,54.5,29.91,NE,53,3.0,5.0,88,0.00,,,0.00,Wunderground v.1.15,2013-08-05 01:24:00,
2013-08-04 18:29:00,57.6,54.1,29.91,NNE,19,0.0,7.0,88,0.00,,,0.00,Wunderground v.1.15,2013-08-05 01:29:00,
2013-08-04 18:34:00,57.3,54.1,29.92,NNE,20,0.0,5.0,89,0.00,,,0.00,Wunderground v.1.15,2013-08-05 01:34:00,
2013-08-04 18:39:00,57.2,54.0,29.92,NNW,341,1.0,5.0,89,0.00,,,0.00,Wunderground v.1.15,2013-08-05 01:39:00,
2013-08-04 18:44:00,57.0,54.1,29.92,SSW,198,2.0,3.0,90,0.00,,,0.00,Wunderground v.1.15,2013-08-05 01:44:00,
2013-08-04 18:49:00,56.9,54.0,29.92,South,171,0.0,4.0,90,0.00,,,0.00,Wunderground v.1.15,2013-08-05 01:49:00,
2013-08-04 18:54:00,56.7,54.1,29.92,South,186,2.0,5.0,91,0.00,,,0.00,Wunderground v.1.15,2013-08-05 01:54:00,
2013-08-04 18:59:00,56.6,54.0,29.92,WNW,282,0.0,5.0,91,0.00,,,0.00,Wunderground v.1.15,2013-08-05 01:59:00,
2013-08-04 19:04:00,56.5,54.2,29.92,North,0,0.0,4.0,92,0.00,,,0.00,Wunderground v.1.15,2013-08-05 02:04:00,
2013-08-04 19:09:00,56.5,54.2,29.92,North,0,0.0,4.0,92,0.00,,,0.00,Wunderground v.1.15,2013-08-05 02:09:00,
2013-08-04 19:14:00,56.3,54.0,29.92,North,9,0.0,5.0,92,0.00,,,0.00,Wunderground v.1.15,2013-08-05 02:14:00,
2013-08-04 19:19:00,56.2,53.9,29.92,ESE,113,0.0,5.0,92,0.00,,,0.00,Wunderground v.1.15,2013-08-05 02:19:00,
2013-08-04 19:24:00,56.0,53.7,29.92,WNW,303,1.0,3.0,92,0.00,,,0.00,Wunderground v.1.15,2013-08-05 02:24:00,
2013-08-04 19:29:00,55.9,53.9,29.92,SE,138,0.0,4.0,93,0.00,,,0.00,Wunderground v.1.15,2013-08-05 02:29:00,
2013-08-04 19:34:00,55.7,53.7,29.92,North,4,0.0,5.0,93,0.00,,,0.00,Wunderground v.1.15,2013-08-05 02:34:00,
2013-08-04 19:39:00,55.6,53.6,29.92,NNW,333,0.0,5.0,93,0.00,,,0.00,Wunderground v.1.15,2013-08-05 02:39:00,
2013-08-04 19:44:00,55.4,53.4,29.92,West,274,0.0,2.0,93,0.00,,,0.00,Wunderground v.1.15,2013-08-05 02:44:00,
2013-08-04 19:49:00,55.3,53.6,29.92,NNE,21,0.0,4.0,94,0.00,,,0.00,Wunderground v.1.15,2013-08-05 02:49:00,
2013-08-04 19:54:00,55.1,53.4,29.92,NNE,21,0.0,0.0,94,0.00,,,0.00,Wunderground v.1.15,2013-08-05 02:54:00,
2013-08-04 19:59:00,55.1,53.4,29.92,East,99,0.0,1.0,94,0.00,,,0.00,Wunderground v.1.15,2013-08-05 02:59:00,
2013-08-04 20:04:00,55.0,53.6,29.92,NNW,340,0.0,2.0,95,0.00,,,0.00,Wunderground v.1.15,2013-08-05 03:04:00,
2013-08-04 20:09:00,54.8,53.4,29.92,NNW,340,1.0,2.0,95,0.00,,,0.00,Wunderground v.1.15,2013-08-05 03:09:00,
2013-08-04 20:14:00,54.5,53.1,29.92,NNW,340,0.0,2.0,95,0.00,,,0.00,Wunderground v.1.15,2013-08-05 03:14:00,
2013-08-04 20:19:00,54.5,53.4,29.92,North,0,3.0,3.0,96,0.00,,,0.00,Wunderground v.1.15,2013-08-05 03:19:00,
2013-08-04 20:24:00,54.5,53.4,29.92,North,0,0.0,1.0,96,0.00,,,0.00,Wunderground v.1.15,2013-08-05 03:24:00,
2013-08-04 20:29:00,54.4,53.3,29.92,North,0,0.0,1.0,96,0.00,,,0.00,Wunderground v.1.15,2013-08-05 03:29:00,
2013-08-04 20:34:00,54.4,53.3,29.92,North,0,0.0,0.0,96,0.00,,,0.00,Wunderground v.1.15,2013-08-05 03:34:00,
2013-08-04 20:39:00,54.2,53.1,29.92,North,0,0.0,0.0,96,0.00,,,0.00,Wunderground v.1.15,2013-08-05 03:39:00,
2013-08-04 20:44:00,54.1,53.0,29.92,North,0,0.0,0.0,96,0.00,,,0.00,Wunderground v.1.15,2013-08-05 03:44:00,
2013-08-04 20:49:00,54.1,53.0,29.92,North,0,0.0,1.0,96,0.00,,,0.00,Wunderground v.1.15,2013-08-05 03:49:00,
2013-08-04 20:54:00,53.9,52.8,29.92,North,0,0.0,0.0,96,0.00,,,0.00,Wunderground v.1.15,2013-08-05 03:54:00,
2013-08-04 20:59:00,53.8,53.0,29.92,North,0,0.0,0.0,97,0.00,,,0.00,Wunderground v.1.15,2013-08-05 03:59:00,
2013-08-04 21:01:00,53.8,52.7,29.93,North,0,0.0,0.0,96,0.00,,,0.00,Wunderground v.1.15,2013-08-05 04:01:00,
2013-08-04 21:02:00,53.8,52.7,29.93,North,0,0.0,0.0,96,0.00,,,0.00,Wunderground v.1.15,2013-08-05 04:02:00,
2013-08-04 21:07:00,53.5,52.7,29.93,North,0,0.0,0.0,97,0.00,,,0.00,Wunderground v.1.15,2013-08-05 04:07:00,
2013-08-04 21:12:00,53.5,52.7,29.93,North,0,0.0,0.0,97,0.00,,,0.00,Wunderground v.1.15,2013-08-05 04:12:00,
2013-08-04 21:17:00,53.3,52.5,29.93,North,0,0.0,0.0,97,0.00,,,0.00,Wunderground v.1.15,2013-08-05 04:17:00,
2013-08-04 21:22:00,53.2,52.4,29.93,North,0,0.0,0.0,97,0.00,,,0.00,Wunderground v.1.15,2013-08-05 04:22:00,
2013-08-04 21:27:00,53.2,52.4,29.93,North,0,0.0,0.0,97,0.00,,,0.00,Wunderground v.1.15,2013-08-05 04:27:00,
2013-08-04 21:32:00,53.1,52.3,29.93,North,0,0.0,0.0,97,0.00,,,0.00,Wunderground v.1.15,2013-08-05 04:32:00,
2013-08-04 21:37:00,52.9,52.4,29.93,North,0,0.0,0.0,98,0.00,,,0.00,Wunderground v.1.15,2013-08-05 04:37:00,
2013-08-04 21:42:00,52.9,52.4,29.93,North,0,0.0,0.0,98,0.00,,,0.00,Wunderground v.1.15,2013-08-05 04:42:00,
2013-08-04 21:47:00,52.8,52.3,29.94,North,0,0.0,1.0,98,0.00,,,0.00,Wunderground v.1.15,2013-08-05 04:47:00,
2013-08-04 21:52:00,52.8,52.3,29.94,North,0,0.0,0.0,98,0.00,,,0.00,Wunderground v.1.15,2013-08-05 04:52:00,
2013-08-04 21:57:00,52.6,52.1,29.94,North,0,0.0,0.0,98,0.00,,,0.00,Wunderground v.1.15,2013-08-05 04:57:00,
2013-08-04 22:02:00,52.6,52.3,29.94,North,0,0.0,0.0,99,0.00,,,0.00,Wunderground v.1.15,2013-08-05 05:02:00,
2013-08-04 22:08:00,52.6,52.6,29.94,North,0,0.0,0.0,100,0.00,,,0.00,Wunderground v.1.15,2013-08-05 05:08:00,
2013-08-04 22:13:00,52.6,52.6,29.94,North,0,0.0,0.0,100,0.00,,,0.00,Wunderground v.1.15,2013-08-05 05:13:00,
2013-08-04 22:18:00,52.5,52.5,29.94,North,0,0.0,0.0,100,0.00,,,0.00,Wunderground v.1.15,2013-08-05 05:18:00,
2013-08-04 22:22:00,52.5,52.5,29.94,North,0,0.0,0.0,100,0.00,,,0.00,Wunderground v.1.15,2013-08-05 05:22:00,
2013-08-04 22:28:00,52.5,52.5,29.94,North,0,0.0,0.0,100,0.00,,,0.00,Wunderground v.1.15,2013-08-05 05:28:00,
2013-08-04 22:33:00,52.3,52.3,29.94,North,0,0.0,0.0,100,0.00,,,0.00,Wunderground v.1.15,2013-08-05 05:33:00,
2013-08-04 22:38:00,52.3,52.3,29.94,North,0,0.0,0.0,100,0.00,,,0.00,Wunderground v.1.15,2013-08-05 05:38:00,
2013-08-04 22:42:00,52.2,52.2,29.94,North,0,0.0,0.0,100,0.00,,,0.00,Wunderground v.1.15,2013-08-05 05:42:00,
2013-08-04 22:47:00,52.2,52.2,29.94,North,0,0.0,0.0,100,0.00,,,0.00,Wunderground v.1.15,2013-08-05 05:47:00,
2013-08-04 22:53:00,52.2,52.2,29.94,North,0,0.0,0.0,100,0.00,,,0.00,Wunderground v.1.15,2013-08-05 05:53:00,
2013-08-04 22:58:00,52.3,52.3,29.94,North,0,0.0,0.0,100,0.00,,,0.00,Wunderground v.1.15,2013-08-05 05:58:00,
2013-08-04 23:03:00,52.3,52.3,29.94,North,0,0.0,0.0,100,0.00,,,0.00,Wunderground v.1.15,2013-08-05 06:03:00,
2013-08-04 23:08:00,52.3,52.3,29.94,North,0,0.0,0.0,100,0.00,,,0.00,Wunderground v.1.15,2013-08-05 06:08:00,
2013-08-04 23:12:00,52.5,52.5,29.94,North,0,0.0,0.0,100,0.00,,,0.00,Wunderground v.1.15,2013-08-05 06:12:00,
2013-08-04 23:18:00,52.6,52.6,29.95,North,0,0.0,0.0,100,0.00,,,0.00,Wunderground v.1.15,2013-08-05 06:18:00,
2013-08-04 23:22:00,52.6,52.6,29.95,North,0,0.0,0.0,100,0.00,,,0.00,Wunderground v.1.15,2013-08-05 06:22:00,
2013-08-04 23:27:00,52.6,52.6,29.95,North,0,0.0,0.0,100,0.00,,,0.00,Wunderground v.1.15,2013-08-05 06:27:00,
2013-08-04 23:32:00,52.9,52.9,29.95,North,0,0.0,0.0,100,0.00,,,0.00,Wunderground v.1.15,2013-08-05 06:32:00,
2013-08-04 23:37:00,53.1,53.1,29.95,North,0,0.0,0.0,100,0.00,,,0.00,Wunderground v.1.15,2013-08-05 06:37:00,
2013-08-04 23:43:00,53.1,53.1,29.95,North,0,0.0,0.0,100,0.00,,,0.00,Wunderground v.1.15,2013-08-05 06:43:00,
2013-08-04 23:48:00,53.2,53.2,29.95,North,0,0.0,0.0,100,0.00,,,0.00,Wunderground v.1.15,2013-08-05 06:48:00,
2013-08-04 23:53:00,53.3,53.3,29.95,North,0,0.0,0.0,100,0.00,,,0.00,Wunderground v.1.15,2013-08-05 06:53:00,
2013-08-04 23:58:00,53.5,53.5,29.95,North,0,0.0,0.0,100,0.00,,,0.00,Wunderground v.1.15,2013-08-05 06:58:00,